• în România
  • Lista ţărilor
  • Pe 7 zile
  • Temperatura apei
  • Hartă satelitară
  • Meteo pe hartă
  • Widget-uri
  • user-avatar
    Intrare

    Meteo pe oră la Matrosovskiy

    Astăzi, 14 Noiembrie, Miercuri

    Timp Temperatura Precipitaţii Vânt Presiune Umiditate
    00:00 -8°C° 0 mm 3 m/s 770 mmHg 33%
    01:00 -8°C° 0 mm 3 m/s 770 mmHg 33%
    02:00 -8°C° 0 mm 3 m/s 770 mmHg 34%
    03:00 -8°C° 0 mm 3 m/s 770 mmHg 38%
    04:00 -9°C° 0 mm 3 m/s 769 mmHg 39%
    05:00 -9°C° 0 mm 3 m/s 769 mmHg 39%
    06:00 -9°C° 0 mm 3 m/s 769 mmHg 39%
    07:00 -10°C° 0 mm 4 m/s 768 mmHg 39%
    08:00 -9°C° 0 mm 4 m/s 768 mmHg 38%
    09:00 -9°C° 0 mm 4 m/s 768 mmHg 37%
    10:00 -8°C° 0 mm 4 m/s 767 mmHg 36%
    11:00 -5°C° 0 mm 4 m/s 767 mmHg 35%
    12:00 -4°C° 0 mm 4 m/s 766 mmHg 34%
    13:00 -4°C° 0 mm 4 m/s 766 mmHg 37%
    14:00 -3°C° 0 mm 4 m/s 766 mmHg 39%
    15:00 -3°C° 0 mm 4 m/s 766 mmHg 41%
    16:00 -4°C° 0 mm 4 m/s 765 mmHg 44%
    17:00 -4°C° 0 mm 4 m/s 765 mmHg 48%
    18:00 -5°C° 0 mm 3 m/s 765 mmHg 51%
    19:00 -5°C° 0 mm 4 m/s 765 mmHg 50%
    20:00 -5°C° 0 mm 4 m/s 765 mmHg 49%
    21:00 -5°C° 0 mm 4 m/s 765 mmHg 48%
    22:00 -5°C° 0 mm 4 m/s 765 mmHg 46%
    23:00 -5°C° 0 mm 3 m/s 765 mmHg 43%

    Mâine, 15 Noiembrie, Joi

    Timp Temperatura Precipitaţii Vânt Presiune Umiditate
    00:00 -6°C° 0 mm 3 m/s 765 mmHg 41%
    01:00 -6°C° 0 mm 3 m/s 766 mmHg 40%
    02:00 -6°C° 0 mm 3 m/s 766 mmHg 38%
    03:00 -6°C° 0 mm 3 m/s 766 mmHg 37%
    04:00 -6°C° 0 mm 3 m/s 766 mmHg 37%
    05:00 -7°C° 0 mm 3 m/s 766 mmHg 36%
    06:00 -7°C° 0 mm 3 m/s 766 mmHg 36%
    07:00 -6°C° 0 mm 3 m/s 766 mmHg 35%
    08:00 -6°C° 0 mm 3 m/s 767 mmHg 33%
    09:00 -6°C° 0 mm 3 m/s 767 mmHg 32%
    10:00 -5°C° 0 mm 3 m/s 767 mmHg 30%
    11:00 -4°C° 0 mm 3 m/s 767 mmHg 28%
    12:00 -2°C° 0 mm 3 m/s 767 mmHg 26%
    13:00 -1°C° 0 mm 3 m/s 767 mmHg 25%
    14:00 -1°C° 0 mm 3 m/s 767 mmHg 25%
    15:00 -1°C° 0 mm 3 m/s 767 mmHg 24%
    16:00 -2°C° 0 mm 3 m/s 767 mmHg 26%
    17:00 -4°C° 0 mm 3 m/s 767 mmHg 28%
    18:00 -5°C° 0 mm 3 m/s 768 mmHg 30%
    19:00 -5°C° 0 mm 3 m/s 768 mmHg 31%
    20:00 -5°C° 0 mm 3 m/s 768 mmHg 31%
    21:00 -5°C° 0 mm 3 m/s 768 mmHg 31%
    22:00 -5°C° 0 mm 3 m/s 769 mmHg 32%
    23:00 -5°C° 0 mm 3 m/s 769 mmHg 32%

    Poimâine, 16 Noiembrie, Vineri

    Timp Temperatura Precipitaţii Vânt Presiune Umiditate
    00:00 -5°C° 0 mm 2 m/s 769 mmHg 33%
    01:00 -5°C° 0 mm 2 m/s 769 mmHg 33%
    02:00 -6°C° 0 mm 3 m/s 769 mmHg 33%
    03:00 -6°C° 0 mm 3 m/s 769 mmHg 33%
    04:00 -6°C° 0 mm 3 m/s 769 mmHg 33%
    05:00 -6°C° 0 mm 3 m/s 769 mmHg 33%
    06:00 -6°C° 0 mm 3 m/s 770 mmHg 32%
    07:00 -6°C° 0 mm 3 m/s 770 mmHg 31%
    08:00 -5°C° 0 mm 3 m/s 770 mmHg 29%
    09:00 -5°C° 0 mm 3 m/s 770 mmHg 27%
    10:00 -4°C° 0 mm 3 m/s 770 mmHg 25%
    11:00 -2°C° 0 mm 3 m/s 770 mmHg 23%
    12:00 -1°C° 0 mm 3 m/s 770 mmHg 21%
    13:00 -1°C° 0 mm 3 m/s 770 mmHg 22%
    14:00 -1°C° 0 mm 3 m/s 770 mmHg 23%
    15:00 0°C° 0 mm 3 m/s 770 mmHg 24%
    16:00 -1°C° 0 mm 3 m/s 770 mmHg 25%
    17:00 -2°C° 0 mm 3 m/s 770 mmHg 27%
    18:00 -4°C° 0 mm 3 m/s 770 mmHg 28%
    19:00 -4°C° 0 mm 3 m/s 770 mmHg 28%
    20:00 -4°C° 0 mm 3 m/s 770 mmHg 27%
    21:00 -5°C° 0 mm 3 m/s 770 mmHg 27%
    22:00 -4°C° 0 mm 2 m/s 770 mmHg 27%
    23:00 -4°C° 0 mm 2 m/s 770 mmHg 26%

    17 Noiembrie, Sâmbătă

    Timp Temperatura Precipitaţii Vânt Presiune Umiditate
    00:00 -4°C° 0 mm 2 m/s 769 mmHg 26%
    01:00 -4°C° 0 mm 2 m/s 769 mmHg 26%
    02:00 -4°C° 0 mm 2 m/s 769 mmHg 26%
    03:00 -5°C° 0 mm 2 m/s 769 mmHg 26%
    04:00 -5°C° 0 mm 2 m/s 769 mmHg 26%
    05:00 -5°C° 0 mm 2 m/s 768 mmHg 25%
    06:00 -5°C° 0 mm 2 m/s 768 mmHg 25%
    07:00 -5°C° 0 mm 2 m/s 768 mmHg 24%
    08:00 -4°C° 0 mm 2 m/s 768 mmHg 23%
    09:00 -4°C° 0 mm 2 m/s 768 mmHg 22%
    10:00 -3°C° 0 mm 2 m/s 767 mmHg 20%
    11:00 0°C° 0 mm 1 m/s 767 mmHg 18%
    12:00 +2°C° 0 mm 1 m/s 766 mmHg 16%
    13:00 +2°C° 0 mm 1 m/s 766 mmHg 18%
    14:00 +1°C° 0 mm 1 m/s 765 mmHg 19%
    15:00 +1°C° 0 mm 1 m/s 765 mmHg 21%
    16:00 +1°C° 0 mm 1 m/s 764 mmHg 21%
    17:00 0°C° 0 mm 1 m/s 764 mmHg 22%
    18:00 -1°C° 0 mm 1 m/s 763 mmHg 22%
    19:00 -1°C° 0 mm 1 m/s 763 mmHg 22%
    20:00 -1°C° 0 mm 1 m/s 762 mmHg 21%
    21:00 -2°C° 0 mm 0 m/s 762 mmHg 21%
    22:00 -1°C° 0 mm 1 m/s 761 mmHg 21%
    23:00 -2°C° 0 mm 1 m/s 761 mmHg 21%

    18 Noiembrie, Duminică

    Timp Temperatura Precipitaţii Vânt Presiune Umiditate
    00:00 -4°C° 0 mm 2 m/s 760 mmHg 22%
    01:00 -4°C° 0 mm 2 m/s 759 mmHg 22%
    02:00 -4°C° 0 mm 2 m/s 759 mmHg 23%
    03:00 -4°C° 0 mm 2 m/s 758 mmHg 24%
    04:00 -5°C° 0 mm 2 m/s 758 mmHg 24%
    05:00 -5°C° 0 mm 2 m/s 757 mmHg 25%
    06:00 -6°C° 0 mm 3 m/s 757 mmHg 26%
    07:00 -6°C° 0 mm 3 m/s 756 mmHg 26%
    08:00 -6°C° 0 mm 3 m/s 756 mmHg 26%
    09:00 -5°C° 0 mm 3 m/s 755 mmHg 26%
    10:00 -4°C° 0 mm 3 m/s 755 mmHg 26%
    11:00 -3°C° 0 mm 4 m/s 755 mmHg 26%
    12:00 -2°C° 0 mm 4 m/s 755 mmHg 26%
    13:00 -1°C° 0 mm 3 m/s 755 mmHg 29%
    14:00 0°C° 0 mm 3 m/s 755 mmHg 31%
    15:00 0°C° 0 mm 3 m/s 754 mmHg 34%
    16:00 -1°C° 0 mm 3 m/s 755 mmHg 37%
    17:00 -2°C° 0 mm 3 m/s 755 mmHg 41%
    18:00 -4°C° 0 mm 3 m/s 755 mmHg 45%
    19:00 -4°C° 0 mm 3 m/s 755 mmHg 46%
    20:00 -4°C° 0 mm 3 m/s 755 mmHg 47%
    21:00 -3°C° 0 mm 2 m/s 756 mmHg 48%
    22:00 -4°C° 0 mm 3 m/s 756 mmHg 49%
    23:00 -4°C° 0 mm 3 m/s 756 mmHg 50%

    19 Noiembrie, Luni

    Timp Temperatura Precipitaţii Vânt Presiune Umiditate
    00:00 -4°C° 0 mm 3 m/s 757 mmHg 51%
    01:00 -4°C° 0 mm 3 m/s 757 mmHg 51%
    02:00 -2°C° 0 mm 3 m/s 758 mmHg 51%
    03:00 -2°C° 0 mm 3 m/s 758 mmHg 51%
    04:00 -2°C° 0 mm 3 m/s 759 mmHg 51%
    05:00 -2°C° 0 mm 3 m/s 759 mmHg 50%
    06:00 -4°C° 0 mm 3 m/s 760 mmHg 50%
    07:00 -2°C° 0 mm 3 m/s 760 mmHg 48%
    08:00 -2°C° 0 mm 3 m/s 761 mmHg 46%
    09:00 -2°C° 0 mm 3 m/s 761 mmHg 44%
    10:00 -1°C° 0 mm 3 m/s 762 mmHg 40%
    11:00 0°C° 0 mm 3 m/s 762 mmHg 35%
    12:00 0°C° 0 mm 4 m/s 763 mmHg 31%
    13:00 +1°C° 0 mm 3 m/s 763 mmHg 31%
    14:00 0°C° 0 mm 3 m/s 763 mmHg 31%
    15:00 0°C° 0 mm 3 m/s 764 mmHg 31%
    16:00 0°C° 0 mm 3 m/s 764 mmHg 32%
    17:00 -1°C° 0 mm 3 m/s 764 mmHg 34%
    18:00 -2°C° 0 mm 3 m/s 765 mmHg 35%
    19:00 -2°C° 0 mm 3 m/s 765 mmHg 35%
    20:00 -2°C° 0 mm 3 m/s 765 mmHg 34%
    21:00 -4°C° 0 mm 3 m/s 765 mmHg 34%
    22:00 -4°C° 0 mm 3 m/s 766 mmHg 33%
    23:00 -4°C° 0 mm 3 m/s 766 mmHg 33%
    Arată mai mult